This is the latest recevied weather packets stored in our database for station/object N3AVN. If no packets are shown the sender has not sent any weather packets the latest 10 day(s).
| Time | Temp. | Humidity | Pressure | Rain* | Wind** | Luminosity | Snow |
|---|---|---|---|---|---|---|---|
| 1778167099 | 15° C | 36% | 1008.6 hPa | 0 mm | - | 620 W/m² | - |
| 1778166795 | 14.44° C | 40% | 1009 hPa | 0 mm | - | 533 W/m² | - |
| 1778166492 | 15° C | 40% | 1008.8 hPa | 0 mm | - | 669 W/m² | - |
| 1778166189 | 15.56° C | 40% | 1008.5 hPa | 0 mm | - | 636 W/m² | - |
| 1778165885 | 16.11° C | 42% | 1008.8 hPa | 0 mm | - | 580 W/m² | - |
| 1778165581 | 15.56° C | 41% | 1008.7 hPa | 0 mm | - | 637 W/m² | - |
| 1778165279 | 15° C | 40% | 1009.1 hPa | 0 mm | - | 636 W/m² | - |
| 1778164976 | 14.44° C | 41% | 1008.8 hPa | 0 mm | - | 590 W/m² | - |
| 1778164672 | 15° C | 45% | 1009.2 hPa | 0 mm | - | 554 W/m² | - |
| 1778164370 | 15.56° C | 40% | 1009.1 hPa | 0 mm | - | 591 W/m² | - |
| 1778164066 | 14.44° C | 42% | 1009.4 hPa | 0 mm | - | 701 W/m² | - |
| 1778163762 | 13.89° C | 41% | 1009.2 hPa | 0 mm | - | 612 W/m² | - |
| 1778163459 | 13.89° C | 44% | 1008.8 hPa | 0 mm | - | 719 W/m² | - |
| 1778163156 | 13.33° C | 43% | 1009 hPa | 0 mm | - | 750 W/m² | - |
| 1778162852 | 13.89° C | 41% | 1009.3 hPa | 0 mm | - | 685 W/m² | - |
| 1778162550 | 13.33° C | 40% | 1009 hPa | 0 mm | - | 586 W/m² | - |
| 1778162246 | 13.33° C | 43% | 1009.1 hPa | 0 mm | - | 738 W/m² | - |
| 1778161944 | 13.89° C | 47% | 1008.9 hPa | 0 mm | - | 580 W/m² | - |
| 1778161640 | 13.33° C | 44% | 1008.8 hPa | 0 mm | - | 652 W/m² | - |
| 1778161336 | 12.78° C | 45% | 1009 hPa | 0 mm | - | 544 W/m² | - |
| 1778161032 | 12.22° C | 47% | 1008.9 hPa | 0 mm | - | 599 W/m² | - |
| 1778160730 | 11.67° C | 45% | 1009 hPa | 0 mm | - | 555 W/m² | - |
| 1778160427 | 11.67° C | 46% | 1008.9 hPa | 0 mm | - | 603 W/m² | - |
| 1778160123 | 12.22° C | 48% | 1009 hPa | 0 mm | - | 579 W/m² | - |
| 1778159820 | 12.22° C | 48% | 1009.2 hPa | 0 mm | - | 494 W/m² | - |
* Rain latest hour (hover to see other rain measurements)
** Current wind speed in m/s (hover to see current wind gust speed)